Regional Weather Roundup
Issued by NWS

Home | Current Version | Previous Version | Text Only | Print | Product List | Glossary On
Versions: 1 2 3 4 5 6 7 8 9 10 11 12 13 14 15 16 17 18 19 20 21 22 23 24 25 26 27 28
000
ASUS45 KREV 300410
RWRNV
NEVADA REGIONAL WEATHER ROUNDUP
NATIONAL WEATHER SERVICE RENO NV
900 PM PDT FRI JUL 29 2016

NOTE: "FAIR" INDICATES FEW OR NO CLOUDS BELOW 12,000 FEET WITH NO
SIGNIFICANT WEATHER AND/OR OBSTRUCTIONS TO VISIBILITY.

NVZ001-003-004-300500-
WESTERN NEVADA

CITY           SKY/WX    TMP DP  RH WIND       PRES   REMARKS
RENO           PTCLDY    90  43  19 N8G16     30.01R
CARSON CITY    FAIR      86  37  17 CALM      30.06R
MINDEN         FAIR      84  39  20 W12       30.06R
SLIDE MTN        N/A     64  36  34 W14         N/A
PYRAMID LAKE     N/A     95 N/A N/A SW12        N/A
FALLON         CLOUDY    92  40  16 W17G23    29.94R THUNDER
LOVELOCK       MOCLDY    90  45  21 SW17      29.91R
HAWTHORNE      CLEAR     88  43  20 W9        30.01R
$$

NVZ002-CAZ072-073-300500-
NORTHERN AND CENTRAL SIERRA

CITY           SKY/WX    TMP DP  RH WIND       PRES   REMARKS
S. LAKE TAHOE  CLEAR     71  41  33 CALM      30.20R
TRUCKEE        CLEAR     68  39  34 SE6       30.17S
SQUAW VLY 8000 NOT AVBL
SUSANVILLE     CLEAR     90  46  22 W9        29.98R
MAMMOTH LAKES    N/A     72  40  31 W9        30.28R
BRIDGEPORT       N/A     71  35  26 CALM      30.22R
$$

NVZ030-031-036-300500-
NORTHERN NEVADA

CITY           SKY/WX    TMP DP  RH WIND       PRES   REMARKS
ELKO           MOCLDY    87  35  15 CALM      30.00R
WINNEMUCCA     PTCLDY    90  38  16 N8        29.92R
WENDOVER       MOCLDY    88  39  18 NW6       29.96S
$$

NVZ035-037-300500-
CENTRAL NEVADA

CITY           SKY/WX    TMP DP  RH WIND       PRES   REMARKS
ELY            MOCLDY    72  47  40 SE14      30.16S
EUREKA           N/A     77  47  34 S15       30.12R
$$

NVZ013-014-300500-
SOUTH CENTRAL NEVADA

CITY           SKY/WX    TMP DP  RH WIND       PRES   REMARKS
TONOPAH        CLOUDY    80  47  31 E15       30.13S
$$

NVZ017-020-022-300500-
SOUTHERN NEVADA

CITY           SKY/WX    TMP DP  RH WIND       PRES   REMARKS
LAS VEGAS      MOCLDY   106  40  10 N15       29.73R
N. LAS VEGAS   LGT RAIN  97  57  26 N20G29    29.75R
NELLIS AFB     TSTM     104  52  17 W18       29.74R
HENDERSON      PTCLDY   103  49  16 NW9       29.80R
MERCURY        CLOUDY    96  46  18 NW8       29.94R
$$




USA.gov is the U.S. government's official web portal to all federal, state and local government web resources and services.